TimeCEST,TemperatureF,Dew PointF,Humidity,Sea Level PressureIn,VisibilityMPH,Wind Direction,Wind SpeedMPH,Gust SpeedMPH,PrecipitationIn,Events,Conditions,WindDirDegrees,DateUTC
12:20 AM,68.0,66.2,94,29.92,6.2,WSW,3.5,-,N/A,,Partly Cloudy,240,2012-10-12 22:20:00
12:50 AM,68.0,64.4,88,29.92,6.2,Variable,1.2,-,N/A,Rain,Light Rain,0,2012-10-12 22:50:00
1:20 AM,66.2,64.4,94,29.92,6.2,NE,3.5,-,N/A,,Partly Cloudy,40,2012-10-12 23:20:00
1:50 AM,66.2,64.4,94,29.92,6.2,Variable,2.3,-,N/A,,Partly Cloudy,0,2012-10-12 23:50:00
2:20 AM,64.4,62.6,94,29.92,-9999.0,Variable,1.2,-,N/A,,Clear,0,2012-10-13 00:20:00
2:50 AM,64.4,62.6,94,29.92,6.2,West,2.3,-,N/A,,Partly Cloudy,280,2012-10-13 00:50:00
3:20 AM,64.4,64.4,100,29.92,6.2,SW,2.3,-,N/A,,Partly Cloudy,230,2012-10-13 01:20:00
3:50 AM,64.4,62.6,94,29.92,6.2,NE,4.6,-,N/A,,Partly Cloudy,40,2012-10-13 01:50:00
4:20 AM,62.6,62.6,100,29.92,-9999.0,Variable,1.2,-,N/A,,Clear,0,2012-10-13 02:20:00
4:50 AM,62.6,60.8,94,29.92,-9999.0,Variable,2.3,-,N/A,,Clear,0,2012-10-13 02:50:00
5:20 AM,62.6,62.6,100,29.92,6.2,NNE,2.3,-,N/A,,Partly Cloudy,30,2012-10-13 03:20:00
5:50 AM,62.6,62.6,100,29.89,6.2,ENE,2.3,-,N/A,,Partly Cloudy,60,2012-10-13 03:50:00
6:20 AM,62.6,62.6,100,29.89,6.2,NE,2.3,-,N/A,,Partly Cloudy,50,2012-10-13 04:20:00
6:50 AM,62.6,62.6,100,29.89,6.2,NNE,1.2,-,N/A,,Partly Cloudy,20,2012-10-13 04:50:00
7:20 AM,64.4,62.6,94,29.89,6.2,Calm,Calm,-,N/A,,Partly Cloudy,0,2012-10-13 05:20:00
8:20 AM,66.2,64.4,94,29.89,6.2,Variable,2.3,-,N/A,,Partly Cloudy,0,2012-10-13 06:20:00
8:50 AM,66.2,64.4,94,29.92,6.2,Variable,2.3,-,N/A,,Partly Cloudy,0,2012-10-13 06:50:00
9:20 AM,68.0,64.4,88,29.92,6.2,NNE,2.3,-,N/A,,Partly Cloudy,20,2012-10-13 07:20:00
9:50 AM,68.0,64.4,88,29.92,6.2,Variable,2.3,-,N/A,,Scattered Clouds,0,2012-10-13 07:50:00
10:50 AM,69.8,66.2,88,29.92,6.2,North,5.8,-,N/A,,Scattered Clouds,10,2012-10-13 08:50:00
11:20 AM,69.8,66.2,88,29.92,6.2,Variable,2.3,-,N/A,,Mostly Cloudy,0,2012-10-13 09:20:00
11:50 AM,71.6,66.2,83,29.92,6.2,Variable,2.3,-,N/A,,Mostly Cloudy,0,2012-10-13 09:50:00
12:20 PM,71.6,68.0,88,29.92,6.2,South,3.5,-,N/A,,Mostly Cloudy,170,2012-10-13 10:20:00
12:50 PM,69.8,66.2,88,29.92,3.7,South,3.5,-,N/A,,Mostly Cloudy,180,2012-10-13 10:50:00
1:20 PM,69.8,66.2,88,29.89,3.7,South,3.5,-,N/A,,Overcast,170,2012-10-13 11:20:00
1:50 PM,71.6,66.2,83,29.89,6.2,South,3.5,-,N/A,,Mostly Cloudy,180,2012-10-13 11:50:00
2:20 PM,71.6,66.2,83,29.89,6.2,Variable,1.2,-,N/A,,Mostly Cloudy,0,2012-10-13 12:20:00
2:50 PM,73.4,66.2,78,29.86,6.2,Variable,2.3,-,N/A,,Mostly Cloudy,0,2012-10-13 12:50:00
3:20 PM,71.6,64.4,78,29.86,6.2,Variable,2.3,-,N/A,,Mostly Cloudy,0,2012-10-13 13:20:00
3:50 PM,71.6,64.4,78,29.86,6.2,SSW,2.3,-,N/A,,Mostly Cloudy,210,2012-10-13 13:50:00
4:20 PM,71.6,62.6,73,29.86,6.2,South,3.5,-,N/A,,Mostly Cloudy,180,2012-10-13 14:20:00
4:50 PM,68.0,64.4,88,29.83,5.0,SSW,3.5,-,N/A,Rain,Light Rain,200,2012-10-13 14:50:00
5:20 PM,71.6,66.2,83,29.83,6.2,South,3.5,15.0,N/A,,Mostly Cloudy,190,2012-10-13 15:20:00
5:50 PM,69.8,64.4,83,29.83,6.2,Variable,2.3,-,N/A,,Mostly Cloudy,0,2012-10-13 15:50:00
6:20 PM,69.8,64.4,83,29.83,6.2,Variable,1.2,-,N/A,,Mostly Cloudy,0,2012-10-13 16:20:00
6:50 PM,69.8,64.4,83,29.83,6.2,WNW,1.2,-,N/A,,Mostly Cloudy,290,2012-10-13 16:50:00
7:20 PM,-9999,-9999,N/A,-9999,6.2,Variable,1.2,-,N/A,,Scattered Clouds,0,2012-10-13 17:20:00
7:50 PM,69.8,64.4,83,29.83,6.2,Variable,2.3,-,N/A,,Mostly Cloudy,0,2012-10-13 17:50:00
8:20 PM,68.0,59.0,73,29.83,6.2,NNW,4.6,-,N/A,Rain,Light Rain,340,2012-10-13 18:20:00
8:50 PM,64.4,60.8,88,29.83,2.5,Variable,2.3,-,N/A,Rain,Rain,0,2012-10-13 18:50:00
9:20 PM,64.4,62.6,94,29.83,3.1,Variable,2.3,-,N/A,Rain,Rain,0,2012-10-13 19:20:00
9:50 PM,64.4,62.6,94,29.86,3.1,Variable,1.2,-,N/A,Rain,Rain,0,2012-10-13 19:50:00
10:20 PM,64.4,62.6,94,29.83,5.0,Variable,1.2,-,N/A,Rain,Light Rain,0,2012-10-13 20:20:00
10:50 PM,64.4,62.6,94,29.83,5.0,Variable,1.2,-,N/A,,Scattered Clouds,0,2012-10-13 20:50:00
11:20 PM,64.4,62.6,94,29.83,6.2,Variable,1.2,-,N/A,,Scattered Clouds,0,2012-10-13 21:20:00
11:50 PM,62.6,62.6,100,29.83,6.2,WSW,2.3,-,N/A,,Scattered Clouds,250,2012-10-13 21:50:00